Location: ??
(35.5052°N, 139.7262°E)
Time: 01:33:36
(UTC+00:00)

OAO 1 - Pass Details

Date: 29 October 2021
Orbit: 773 x 784 km, 35.0° (Epoch: 01 December)

Event Time Altitude Azimuth Distance (km) Brightness Sun altitude
Rises 10:23:22 0° 279° (W) 3,250 8.9 -31.9°
Reaches altitude 10° 10:25:54 10° 275° (W) 2,323 7.8 -32.4°
Enters shadow 10:29:40 39° 247° (WSW) 1,145 5.7 -33.1°
